Location: Newark
(30.1000°N, 109.4667°E)
Time: 21:50:24
(UTC+00:00)

deb Explorer IX - Visible Passes

Search period start: 17 February 2020 00:00
Search period end: 27 February 2020 00:00
Orbit: 549 x 1099 km, 38.8° (Epoch: 17 February)

Date Brightness Start Highest point End Pass type
(mag) Time Alt. Az. Time Alt. Az. Time Alt. Az.
17 Feb ? 11:14:08 10° WNW 11:18:58 45° SSW 11:24:36 10° SE visible
18 Feb ? 10:51:57 10° WNW 10:56:37 43° SSW 11:02:03 10° SE visible
26 Feb ? 22:36:28 10° S 22:40:29 19° SE 22:44:07 10° E visible
